Temperature
17 17 17 16 16 16 16 16 15 15 15 15 15 15 15 15 15 15 15 15 14 14 14 14 14 14 14 13 13 13 13 13 13 13 13 13 12 12 12 12 12 12 12
17 17 16 16 16 16 16 16 16 15 15 15 15 15 15 15 15 15 14 15 14 14 14 14 14 14 14 13 13 13 13 13 13 13 13 12 12 12 12 12 12 12 12
17 17 16 16 16 16 15 15 15 15 15 15 15 15 15 15 15 14 14 14 14 14 14 14 14 14 14 13 13 13 13 13 13 13 12 12 12 12 12 12 12 11 11
17 17 16 16 16 16 15 15 15 15 15 15 15 15 15 15 15 14 14 14 14 14 14 14 14 14 13 13 13 13 13 13 13 12 12 12 12 12 12 12 11 11 11
17 17 16 16 16 16 15 15 15 15 15 15 15 15 15 14 14 14 14 14 14 14 14 13 13 13 13 13 13 13 13 13 12 12 12 12 12 12 11 11 11 11 11
17 16 16 16 16 16 15 15 15 15 15 15 15 15 15 14 14 14 14 14 13 13 13 13 13 13 13 13 13 13 13 12 12 12 12 11 11 11 11 11 11 11 11
17 16 16 16 16 16 15 15 15 15 15 15 15 15 14 14 14 14 14 14 13 13 13 13 13 13 13 13 13 13 12 12 12 12 12 11 11 11 11 11 11 10 10
17 17 16 16 16 15 15 15 15 15 15 15 15 15 14 14 14 14 14 13 13 13 13 13 13 13 13 13 13 12 12 12 12 12 11 11 11 11 11 10 10 10 10
17 17 16 16 16 15 15 15 15 15 14 14 14 14 14 14 14 14 14 13 13 13 13 13 13 13 13 12 12 12 12 12 12 11 11 11 11 11 11 10 10 10 10
17 17 16 16 16 15 15 15 15 14 14 14 14 14 14 14 14 14 13 13 13 13 13 13 12 12 12 12 12 12 12 12 11 11 11 11 11 11 10 10 10 9 9
17 16 16 16 15 15 15 15 15 14 14 14 14 14 13 13 14 13 13 13 13 12 12 12 12 12 12 12 12 12 12 11 11 11 11 11 10 10 10 10 9 9 9
17 16 16 16 15 15 15 15 14 14 14 14 13 13 13 13 13 13 13 13 13 12 12 12 12 12 12 12 11 11 11 11 11 11 11 10 10 10 10 9 9 9 9
17 16 16 15 15 15 15 14 14 14 14 13 13 13 13 13 13 13 13 13 12 12 12 12 12 12 11 11 11 11 11 11 11 10 10 10 10 9 9 9 9 9 9
16 16 15 15 15 15 14 14 14 14 14 13 13 13 13 13 13 13 13 12 12 12 12 12 11 11 11 11 11 11 11 10 10 10 10 10 9 9 9 9 9 8 8
16 15 15 15 15 14 14 14 14 14 14 13 13 13 13 13 13 13 13 12 12 12 12 11 11 11 11 11 11 10 10 10 10 10 9 9 9 9 9 8 8 8 7
15 15 15 14 14 14 14 14 13 13 13 13 13 13 13 13 12 12 12 12 12 11 11 11 11 11 11 10 10 10 10 10 9 9 9 9 9 8 8 8 7 7 7
15 15 14 14 14 14 13 13 13 13 13 13 12 12 12 12 12 12 12 12 11 11 11 11 11 10 10 10 10 10 9 9 9 9 9 8 8 8 7 7 7 6 6
15 14 14 14 14 13 13 13 13 13 12 12 12 12 12 12 12 11 11 11 11 11 11 10 10 10 10 10 9 9 9 8 8 8 8 8 8 7 7 7 6 6 6
14 14 14 14 13 13 13 13 12 12 12 12 12 11 12 11 11 11 11 11 11 10 10 10 10 10 9 9 9 9 8 8 8 8 8 7 7 7 6 6 6 5 5
13 13 13 13 13 13 12 12 12 12 11 11 11 11 11 11 11 11 10 10 10 10 10 10 9 9 9 9 8 8 8 8 7 7 7 7 7 6 6 6 5 5 5
13 13 12 12 12 12 12 12 12 11 11 11 11 11 11 11 11 10 10 10 10 10 10 9 9 9 8 8 8 8 7 7 7 7 6 6 6 6 5 5 5 5 4
12 12 12 12 12 12 12 11 11 11 11 11 10 10 10 10 10 10 10 10 9 9 9 9 9 8 8 8 7 7 7 7 6 6 6 6 5 5 5 5 4 4 4
12 12 12 11 11 11 11 11 11 11 10 10 10 10 10 10 9 9 9 9 9 9 9 8 8 8 7 7 7 7 6 6 6 6 5 5 5 5 4 4 4 4 3
11 11 11 11 11 11 11 11 10 10 10 10 10 9 9 9 9 9 9 9 9 8 8 8 8 7 7 7 7 6 6 6 5 5 5 5 4 4 4 4 3 3 3
10 10 10 10 10 10 10 10 10 9 9 9 9 9 9 8 8 8 8 8 8 8 7 7 7 7 6 6 6 6 5 5 5 5 4 4 4 4 4 3 3 2 2
10 10 10 9 9 9 9 9 9 9 9 8 8 8 8 8 8 8 7 7 7 7 7 7 6 6 6 6 6 5 5 5 4 4 4 4 4 3 3 3 2 2 2
Wind_Speed
6 6 6 5 4 4 3 3 3 3 3 3 3 3 3 2 2 2 1 1 1 1 0 1 0 1 1 2 2 1 1 1 0 1 1 1 1 1 1 1 2 2 2
6 6 7 6 5 4 3 3 3 3 3 3 3 3 2 2 2 2 1 1 1 1 1 1 1 1 1 1 2 1 0 0 1 1 1 1 1 1 1 1 1 1 2
7 6 7 6 5 4 3 3 3 3 4 3 3 3 2 2 2 1 1 1 1 1 1 2 1 2 1 1 1 2 1 1 1 0 1 1 1 1 1 2 2 1 3
7 6 7 6 6 5 4 3 3 3 4 3 3 3 3 2 2 2 2 1 1 1 1 1 1 2 1 2 2 2 2 1 0 0 1 1 1 1 1 2 3 2 3
8 7 7 6 6 5 4 4 3 3 3 3 3 3 3 3 2 2 1 0 1 1 1 1 1 3 4 2 2 2 2 2 1 1 1 1 1 1 1 2 2 3 3
8 7 7 7 6 5 4 4 3 2 2 2 3 4 4 3 4 4 3 2 1 1 1 1 2 2 2 2 1 1 1 1 1 1 1 1 2 1 1 2 2 2 3
8 7 8 7 7 6 5 4 4 3 2 1 2 4 4 4 5 3 3 2 2 1 1 0 1 1 2 1 2 2 1 2 1 1 1 2 2 1 1 2 2 2 3
8 8 8 7 7 6 6 5 5 4 3 2 2 3 4 4 5 3 1 1 1 1 1 0 1 1 1 1 1 1 2 2 2 2 3 3 2 1 1 1 3 3 4
7 8 8 7 7 7 6 6 5 4 3 3 2 4 4 4 5 4 1 1 1 2 1 0 0 1 2 3 1 2 2 2 2 2 3 3 2 3 2 1 2 2 4
7 8 8 7 7 7 6 5 4 4 4 4 3 4 4 4 6 5 4 1 2 2 1 1 1 1 2 2 1 1 2 3 2 2 2 3 3 4 3 2 2 2 2
7 7 7 7 7 7 6 5 4 4 4 4 4 3 4 4 6 6 5 2 2 2 1 1 1 1 1 1 2 2 3 3 2 2 2 3 2 2 2 2 2 2 2
7 7 7 7 7 6 6 5 5 5 5 4 3 3 2 3 4 5 6 4 2 1 1 1 1 2 2 3 2 3 3 3 2 2 2 2 2 2 2 2 3 3 3
6 7 7 7 6 6 7 6 5 5 4 4 4 3 2 2 3 6 6 5 4 2 2 2 2 3 3 3 4 4 2 1 1 2 3 3 2 2 2 2 3 3 4
6 6 6 6 6 5 5 5 5 5 5 5 5 4 3 2 2 3 3 3 3 3 2 2 3 4 3 3 2 3 2 3 3 3 3 3 2 2 2 1 2 2 2
5 6 6 5 6 5 4 4 5 5 6 6 5 5 4 4 4 6 4 3 3 3 1 1 2 1 2 2 2 2 2 2 3 2 2 3 2 2 2 2 2 2 2
4 5 4 4 5 5 4 3 3 4 6 6 6 5 3 5 5 6 6 5 4 3 2 2 2 3 3 2 2 2 2 2 2 2 2 2 2 2 2 2 2 2 3
4 4 4 4 4 5 5 5 3 1 3 5 6 6 6 5 5 5 5 3 3 4 2 2 3 3 3 2 2 2 2 2 2 2 2 2 2 2 2 2 2 3 3
3 5 4 4 4 4 5 4 4 4 3 2 3 6 7 6 5 5 5 4 2 2 2 3 3 3 2 2 2 2 2 1 1 2 2 2 2 2 2 3 3 3 3
3 3 3 3 4 4 4 4 4 4 4 3 3 3 5 5 4 5 6 3 3 3 3 3 3 2 2 2 2 1 1 1 1 1 2 2 2 2 3 3 3 4 3
2 4 4 3 3 4 4 4 4 4 4 4 4 3 4 4 3 3 4 4 4 3 3 3 2 2 1 1 1 1 1 1 1 1 2 2 2 3 3 4 3 3 3
2 3 4 3 3 3 3 4 4 4 4 4 3 4 6 5 5 5 5 5 4 4 3 2 2 1 1 1 1 1 1 1 1 2 2 2 2 3 3 3 3 3 3
2 2 2 3 3 3 3 3 3 3 4 4 2 3 6 4 4 4 4 4 3 3 2 2 2 1 1 1 1 1 1 1 1 1 2 2 2 3 3 3 3 3 3
2 2 2 1 2 2 2 2 3 3 3 3 4 3 4 3 3 3 3 2 2 1 1 1 1 0 1 1 1 1 1 1 1 2 2 2 2 2 3 3 3 4 4
2 2 2 1 2 2 2 3 3 3 3 3 3 3 3 3 2 3 2 2 2 2 1 1 1 1 0 1 1 1 0 1 1 2 2 2 2 2 2 2 3 4 4
2 2 2 2 2 2 2 2 2 2 2 2 3 2 2 3 2 2 2 2 2 2 2 1 1 0 1 1 2 1 2 2 2 3 2 2 2 2 2 3 3 4 4
1 1 1 1 2 2 2 2 2 2 2 2 2 2 2 2 2 2 1 2 2 2 2 1 1 1 1 1 2 2 2 2 3 3 2 2 2 3 3 3 4 4 5
Wind_Direction
172 167 152 152 155 160 154 148 142 147 156 147 133 119 109 108 105 97 95 67 72 69 48 87 43 48 23 8 6 5 7 73 81 310 20 40 46 42 13 300 179 174 217
171 164 154 156 153 160 157 154 158 155 149 136 121 116 123 122 117 115 113 96 75 60 15 39 41 64 45 355 349 333 317 130 114 324 332 8 359 324 292 291 296 253 240
163 157 147 150 152 162 162 157 159 154 142 136 127 128 125 116 121 135 127 136 118 92 62 57 40 49 27 0 339 342 322 2 88 122 303 331 332 327 341 319 322 313 297
159 156 152 159 158 165 167 162 167 160 147 149 149 138 127 109 95 87 97 109 111 95 85 61 61 76 46 2 359 342 348 356 6 86 302 305 300 314 12 321 317 309 305
160 161 158 156 154 162 165 165 164 159 155 146 143 129 119 110 84 66 44 103 125 138 117 115 87 90 82 67 39 4 6 358 351 346 314 333 324 350 318 296 309 305 301
164 164 156 156 154 160 161 157 150 141 136 138 142 128 123 115 94 70 33 1 311 188 167 159 143 121 126 102 81 70 72 41 345 338 316 305 297 302 307 313 312 324 311
163 158 157 160 159 167 167 160 162 163 153 169 165 134 128 131 120 93 28 339 327 355 30 40 2 79 120 205 233 236 263 258 237 227 248 272 281 293 319 326 316 295 274
165 161 161 165 163 169 171 170 171 171 171 186 186 145 141 148 142 130 14 329 325 330 345 40 60 48 7 18 317 260 244 247 248 232 227 245 256 264 245 267 271 294 291
167 165 165 166 165 169 175 176 175 175 175 186 183 166 161 161 164 164 152 268 273 265 263 340 101 101 32 31 11 334 323 301 285 244 242 250 275 298 308 346 324 329 304
168 166 164 166 167 174 177 176 177 177 179 183 191 185 177 171 180 184 185 233 252 262 237 187 69 95 66 37 357 316 312 303 315 312 299 288 274 277 269 220 229 267 294
160 159 160 165 170 173 171 171 176 178 179 187 195 197 184 176 180 184 181 206 253 255 247 214 192 169 172 285 308 282 282 293 299 295 282 269 268 253 251 257 248 218 244
152 156 162 166 171 170 161 171 175 174 179 187 193 196 188 175 169 184 190 209 259 252 249 231 201 195 219 247 265 283 308 327 300 290 285 279 276 274 267 270 278 274 254
149 155 160 165 166 162 164 173 175 177 183 191 189 197 200 176 176 183 197 216 241 247 242 227 241 236 235 242 245 256 280 273 272 274 272 269 260 259 284 305 300 293 295
156 160 162 161 162 165 167 174 179 188 191 193 193 195 194 184 176 180 196 214 227 243 253 259 259 246 235 247 256 238 230 236 238 246 262 266 265 264 258 260 275 287 296
164 164 163 163 165 166 166 180 186 194 195 193 195 187 188 198 201 188 182 195 207 218 205 226 234 232 225 235 242 237 225 235 245 248 264 280 274 265 264 260 255 271 285
173 169 166 167 166 167 167 171 189 197 186 180 176 174 186 187 178 175 178 184 188 176 153 214 233 229 230 232 241 254 250 248 244 245 258 273 277 276 281 278 266 259 273
174 166 164 169 170 175 177 176 180 195 176 177 179 178 178 177 170 171 174 169 166 151 166 225 238 235 234 233 231 239 254 260 262 262 264 270 276 283 286 289 287 281 278
177 169 165 167 174 182 183 181 180 182 182 193 200 198 187 177 175 173 158 127 143 178 209 228 239 239 233 230 232 237 253 275 278 273 272 276 277 280 285 285 284 285 289
182 173 167 170 181 188 182 178 181 186 189 188 171 181 180 169 170 176 162 176 202 213 220 228 234 237 237 229 228 226 236 249 264 271 270 277 281 280 280 281 283 293 295
176 173 166 172 186 186 181 181 183 188 193 196 194 182 158 146 167 184 194 207 216 219 218 220 229 238 245 251 253 237 246 263 271 277 284 285 284 281 281 285 287 290 292
171 169 172 185 188 189 186 189 191 189 191 194 194 182 173 186 194 194 199 209 212 212 208 217 227 225 221 246 260 246 247 267 277 281 283 287 291 294 293 291 290 296 299
174 178 182 189 192 190 188 194 193 186 186 185 172 170 174 190 199 198 201 205 202 200 188 193 212 212 189 185 198 211 243 277 293 300 301 302 301 299 299 297 297 298 303
181 177 173 170 183 188 192 190 187 193 191 183 173 164 175 192 200 196 192 192 184 167 148 153 166 172 84 78 96 128 197 261 299 316 307 298 295 294 293 291 294 300 298
177 171 173 184 199 199 195 197 198 198 184 172 170 170 176 184 186 181 174 173 160 154 127 121 134 153 73 48 91 104 35 337 339 335 313 290 284 285 289 295 294 295 294
180 177 186 191 198 204 200 200 197 188 180 180 179 176 171 166 171 178 170 155 155 155 148 137 128 102 56 81 94 65 41 28 3 344 325 301 281 285 288 289 291 293 296
164 177 188 188 186 192 192 189 193 199 192 183 171 167 167 164 161 160 151 145 148 154 154 142 137 88 59 93 105 71 50 20 358 349 339 304 279 280 290 289 290 292 294
Height
1541 1543 1545 1546 1548 1550 1551 1552 1553 1554 1554 1555 1556 1556 1556 1556 1557 1557 1557 1558 1558 1558 1558 1558 1558 1558 1557 1557 1557 1557 1557 1557 1556 1556 1555 1554 1553 1552 1551 1549 1548 1546 1545
1540 1541 1543 1545 1546 1548 1549 1551 1552 1553 1554 1555 1555 1556 1556 1556 1557 1557 1557 1557 1557 1558 1558 1558 1557 1557 1557 1557 1556 1556 1556 1556 1555 1554 1554 1553 1552 1551 1549 1548 1547 1545 1544
1538 1540 1541 1543 1544 1546 1548 1549 1550 1552 1553 1554 1554 1555 1555 1556 1556 1556 1556 1557 1557 1557 1557 1557 1557 1557 1556 1556 1556 1555 1555 1554 1554 1553 1552 1551 1550 1549 1548 1547 1546 1544 1543
1535 1538 1539 1541 1542 1544 1546 1548 1549 1550 1552 1552 1553 1554 1554 1555 1555 1555 1555 1556 1556 1556 1556 1556 1556 1555 1555 1555 1554 1554 1554 1553 1552 1552 1551 1550 1549 1548 1546 1545 1543 1543 1541
1533 1535 1537 1539 1541 1543 1544 1546 1548 1549 1550 1551 1552 1553 1553 1553 1554 1554 1554 1555 1555 1555 1555 1555 1555 1554 1554 1553 1553 1553 1552 1551 1551 1550 1549 1548 1547 1546 1544 1543 1542 1540 1539
1531 1533 1535 1537 1539 1541 1542 1544 1546 1547 1548 1549 1550 1551 1551 1552 1552 1552 1553 1553 1553 1553 1553 1553 1553 1553 1552 1552 1551 1551 1551 1550 1549 1548 1547 1546 1545 1544 1543 1541 1540 1538 1536
1528 1530 1532 1534 1536 1538 1540 1542 1543 1545 1546 1547 1548 1549 1549 1550 1550 1551 1551 1551 1551 1552 1552 1552 1552 1551 1551 1550 1550 1549 1549 1548 1548 1547 1545 1544 1543 1542 1541 1539 1538 1536 1535
1526 1528 1530 1532 1534 1536 1538 1539 1541 1542 1544 1545 1546 1547 1547 1548 1549 1549 1549 1549 1549 1550 1550 1550 1549 1549 1549 1548 1547 1547 1546 1545 1545 1544 1543 1542 1542 1540 1539 1538 1536 1534 1533
1523 1525 1527 1529 1531 1533 1534 1536 1538 1540 1541 1542 1544 1544 1545 1546 1546 1547 1547 1547 1547 1548 1548 1548 1547 1547 1547 1546 1545 1544 1543 1543 1542 1542 1541 1540 1539 1538 1537 1535 1533 1531 1529
1519 1521 1523 1526 1528 1529 1531 1533 1535 1537 1538 1540 1541 1542 1543 1543 1544 1544 1544 1545 1545 1545 1545 1545 1545 1544 1544 1544 1543 1542 1541 1540 1540 1539 1538 1537 1536 1535 1534 1532 1531 1529 1527
1516 1518 1520 1522 1524 1526 1528 1530 1532 1534 1536 1537 1538 1539 1540 1541 1541 1542 1542 1542 1542 1542 1542 1542 1542 1542 1541 1541 1540 1539 1538 1538 1537 1536 1535 1534 1533 1532 1531 1529 1528 1527 1525
1513 1515 1517 1519 1521 1523 1525 1527 1529 1531 1532 1534 1535 1536 1537 1538 1538 1539 1539 1539 1540 1539 1539 1539 1539 1539 1538 1538 1537 1536 1536 1535 1534 1533 1532 1531 1530 1529 1528 1527 1525 1524 1522
1511 1512 1514 1516 1519 1520 1522 1524 1525 1527 1529 1530 1532 1533 1533 1534 1535 1536 1536 1536 1536 1536 1536 1536 1536 1536 1535 1534 1534 1533 1533 1532 1530 1529 1528 1527 1526 1525 1524 1523 1522 1520 1519
1508 1510 1512 1514 1515 1517 1519 1520 1522 1523 1525 1526 1528 1529 1530 1530 1531 1531 1532 1532 1533 1533 1533 1532 1533 1532 1532 1531 1530 1529 1529 1528 1527 1526 1525 1524 1523 1522 1520 1519 1517 1516 1514
1505 1507 1509 1510 1512 1514 1515 1517 1518 1519 1521 1522 1523 1525 1526 1526 1527 1528 1528 1528 1529 1529 1529 1529 1529 1528 1528 1527 1527 1526 1525 1524 1523 1522 1521 1520 1519 1518 1516 1515 1514 1512 1510
1502 1504 1506 1507 1509 1510 1512 1513 1515 1516 1518 1519 1520 1522 1522 1524 1524 1525 1525 1525 1526 1526 1526 1525 1525 1525 1524 1524 1523 1522 1522 1521 1520 1519 1518 1516 1515 1514 1513 1512 1510 1509 1507
1499 1501 1502 1504 1505 1506 1508 1509 1510 1512 1514 1515 1517 1518 1519 1520 1521 1521 1521 1522 1522 1522 1522 1521 1521 1521 1521 1520 1519 1519 1518 1517 1516 1515 1514 1513 1512 1510 1509 1508 1506 1505 1503
1496 1497 1499 1500 1501 1503 1504 1505 1506 1508 1509 1510 1512 1514 1515 1516 1517 1517 1518 1518 1518 1518 1518 1518 1517 1517 1517 1516 1515 1515 1514 1513 1512 1511 1510 1509 1508 1507 1505 1504 1503 1501 1500
1492 1493 1495 1496 1498 1499 1501 1502 1503 1504 1505 1506 1508 1509 1511 1512 1513 1513 1513 1513 1513 1513 1514 1514 1514 1513 1513 1512 1512 1511 1510 1509 1508 1508 1506 1505 1504 1503 1501 1500 1499 1497 1496
1488 1490 1491 1492 1494 1495 1497 1498 1499 1500 1501 1502 1504 1505 1506 1507 1507 1508 1509 1509 1509 1510 1510 1510 1510 1509 1509 1508 1507 1507 1506 1505 1504 1503 1502 1501 1500 1499 1497 1496 1495 1493 1492
1484 1486 1488 1489 1490 1492 1493 1494 1495 1496 1497 1499 1500 1501 1502 1503 1503 1504 1505 1505 1505 1506 1506 1506 1505 1505 1505 1504 1503 1502 1502 1501 1500 1499 1498 1497 1496 1494 1493 1491 1490 1489 1487
1481 1482 1484 1485 1487 1488 1489 1490 1491 1492 1494 1495 1496 1497 1498 1499 1499 1500 1501 1501 1502 1502 1502 1502 1501 1501 1500 1500 1499 1498 1497 1497 1496 1495 1493 1492 1491 1490 1488 1487 1486 1484 1483
1477 1479 1480 1481 1483 1484 1485 1486 1487 1489 1490 1491 1492 1493 1493 1494 1495 1496 1496 1497 1497 1498 1498 1497 1497 1497 1496 1496 1495 1494 1493 1492 1492 1490 1489 1488 1486 1485 1484 1483 1481 1480 1478
1474 1475 1476 1477 1479 1480 1481 1482 1483 1485 1486 1487 1488 1488 1489 1490 1490 1491 1492 1492 1493 1493 1493 1493 1492 1492 1492 1491 1491 1490 1489 1488 1487 1486 1485 1483 1482 1480 1479 1478 1477 1475 1474
1470 1471 1472 1474 1475 1476 1477 1478 1479 1480 1481 1482 1483 1484 1485 1485 1486 1487 1487 1488 1488 1488 1488 1488 1488 1487 1487 1486 1486 1485 1484 1483 1482 1481 1479 1478 1477 1475 1474 1473 1472 1471 1469
1466 1467 1468 1469 1471 1472 1473 1474 1475 1476 1477 1478 1479 1480 1481 1481 1482 1482 1482 1483 1483 1483 1483 1483 1483 1483 1482 1481 1481 1480 1479 1478 1477 1476 1474 1473 1472 1470 1470 1468 1467 1466 1465